Hourly Data Report for September 09, 2017

All times are specified in Local Standard Time (LST). Add 1 hour to adjust for Daylight Saving Time where and when it is observed.

DOAKTOWN AUTO RCS
NEW BRUNSWICK

46°35'06.090" N
66°00'35.071" W
43.00 m
8101201
71038
ADN

Download Data

Hourly Data (September 2017)
Hourly Data Report for September 9, 2017
Temp Definition
°C
Dew Point Temp Definition
°C
Rel Hum Definition
%
Wind Dir Definition
10's deg

Wind Spd Definition
km/h
Visibility Definition
km
Stn Press Definition
kPa
Hmdx Definition


Wind Chill Definition


Weather Definition


TIME
00:00 11.3 10.3 93 0 1   101.29     LegendNANA
01:00 9.9 9.0 94 24 3   101.29     LegendNANA
02:00 9.8 9.1 95   0   101.31     LegendNANA
03:00 10.3 9.7 96   0   101.33     LegendNANA
04:00 10.6 9.9 96 19 1   101.36     LegendNANA
05:00 10.8 10.1 96 0 1   101.40     LegendNANA
06:00 11.3 10.7 96   0   101.47     LegendNANA
07:00 11.8 11.2 96 9 2   101.54     LegendNANA
08:00 13.1 12.2 94 4 4   101.61     LegendNANA
09:00 13.9 12.3 90 5 5   101.65     LegendNANA
10:00 13.7 12.3 91 0 1   101.70     LegendNANA
11:00 14.3 12.8 91 36 1   101.70     LegendNANA
12:00 14.8 13.3 91 8 1   101.68     LegendNANA
13:00 16.2 12.9 81 2 10   101.66     LegendNANA
14:00 16.4 13.0 80 6 9   101.64     LegendNANA
15:00 17.5 13.5 77 9 9   101.63     LegendNANA
16:00 18.5 13.0 70 6 10   101.62     LegendNANA
17:00 15.7 12.4 80 5 6   101.65     LegendNANA
18:00 15.1 12.1 82 36 7   101.71     LegendNANA
19:00 12.7 11.2 90 8 3   101.75     LegendNANA
20:00 11.8 10.2 90 8 3   101.82     LegendNANA
21:00 10.7 9.7 93   0   101.87     LegendNANA
22:00 9.2 8.3 95 25 1   101.89     LegendNANA
23:00 8.7 8.0 95   0   101.90     LegendNANA

Notes on Data Quality.

Legend

  • E = Estimated
  • M = Missing
  • NA = Not Available
  • ‡ = Partner data that is not subject to review by the National Climate Archives
Date modified: